{"data":{"norad_id":57138,"intl_designator":"2023-090AP","name":"STARLINK-5336","alt_names":[],"object_type":"PAYLOAD","status":"ACTIVE","operator":null,"country":"US","launch_date":"2023-06-23","launch_site_code":"AFETR","launch_vehicle":null,"mission":null,"orbit_class":"UNKNOWN","rcs_meters":null,"size_class":null,"mass_kg":null,"dimensions":null,"purposes":["comms"],"wikipedia_slug":null,"has_3d_model":false,"image_url":null,"decayed_at":null,"tle_current":{"epoch":"2026-05-25T04:19:23.212128Z","epoch_age_seconds":59727,"freshness":"FRESH","line1":"1 57138U 23090AP  26145.18012977 -.00000382  00000+0 -43636-5 0  9992","line2":"2 57138  43.0025 191.1974 0001362 284.2054  75.8646 15.27576130162056","mean_motion":15.2757613,"eccentricity":0.0001362,"inclination_deg":43.0025,"raan_deg":191.1974,"arg_perigee_deg":284.2054,"mean_anomaly_deg":75.8646,"bstar":-4.3636e-6,"rev_number":16205,"period_min":94.266987531417,"perigee_km":482.12618911175,"apogee_km":483.99517936094,"semimajor_km":6861.1976842363,"source":"CELESTRAK","updated_at":"2026-05-25T13:38:18.247171Z"}}}